Location: Maiden
(35.5760°N, 81.2120°W)
Time: 02:37:20
(UTC-04:00)

Vanguard 2 - Pass Details

Date: 07 August 2020
Orbit: 553 x 2937 km, 32.9° (Epoch: 20 September)

Event Time Altitude Azimuth Distance (km) Brightness Sun altitude
Rises 21:08:05 0° 227° (SW) 6,778 12.6 -9.3°
Reaches altitude 10° 21:12:55 10° 222° (SW) 5,744 12.1 -10.2°
Maximum altitude 21:29:07 49° 155° (SSE) 3,017 10.2 -13.1°
Drops below altitude 10° 21:40:47 10° 86° (E) 4,243 10.8 -15.1°
Enters shadow 21:41:51 - 83° (E) 4,486 11.0 -15.2°
Sets 21:43:45 0° 80° (E) 4,950 - -15.6°
